KF6ILA Weather Reports


Display with metric or nautical units.
time (UTC)temp
F
wind
direction
speed
MPH
gust
MPH
rain 1hr
in
rain 24hr
in
rain mn
in
humidity
%
barometer
mb
20260504004632 50 270 22.0 31.0 0.00 0.00 0.00 90 1010.0
20260504004503 50 270 22.0 31.0 0.00 0.00 0.00 90 1010.0
20260504003510 50 267 21.0 30.0 0.00 0.00 0.00 90 1010.2
20260504003012 50 270 22.0 30.0 0.00 0.00 0.00 89 1009.9
20260504002736 51 263 20.0 29.0 0.00 0.00 0.00 89 1009.9
20260504002515 51 263 20.0 29.0 0.00 0.00 0.00 89 1009.9
20260504002120 51 266 19.0 28.0 0.00 0.00 0.00 89 1009.8
20260504002021 51 266 19.0 28.0 0.00 0.00 0.00 89 1009.8
20260504001025 51 268 20.0 30.0 0.00 0.00 0.00 89 1009.4
20260504000528 51 268 19.0 24.0 0.00 0.00 0.00 89 1010.1
20260504000031 51 260 16.0 28.0 0.00 0.00 0.00 90 1010.1
20260503235534 51 266 20.0 28.0 0.00 0.00 0.00 89 1009.9
20260503235036 51 263 20.0 28.0 0.00 0.00 0.00 89 1009.8
20260503234637 51 267 18.0 30.0 0.00 0.00 0.00 89 1009.8
20260503234540 51 267 18.0 30.0 0.00 0.00 0.00 89 1009.8
20260503234043 51 271 21.0 30.0 0.00 0.00 0.00 89 1009.9
20260503233937 51 271 18.0 26.0 0.00 0.00 0.00 90 1009.8
20260503233744 51 271 18.0 26.0 0.00 0.00 0.00 90 1009.8
20260503233550 51 271 18.0 26.0 0.00 0.00 0.00 90 1009.8
20260503233410 51 269 19.0 24.0 0.00 0.00 0.00 90 1009.8
20260503233134 51 269 19.0 24.0 0.00 0.00 0.00 90 1009.8
20260503233049 51 269 19.0 24.0 0.00 0.00 0.00 90 1009.8
20260503232707 52 261 16.0 23.0 0.00 0.00 0.00 90 1009.8
20260503232552 52 261 16.0 23.0 0.00 0.00 0.00 90 1009.8
20260503232246 52 271 14.0 25.0 0.00 0.00 0.00 89 1009.8
20260503232055 52 271 14.0 25.0 0.00 0.00 0.00 89 1009.8
20260503231558 52 272 17.0 30.0 0.00 0.00 0.00 88 1009.8
20260503231151 53 265 17.0 30.0 0.00 0.00 0.00 87 1009.8
20260503231101 53 265 17.0 30.0 0.00 0.00 0.00 87 1009.8
20260503230603 53 264 18.0 28.0 0.00 0.00 0.00 86 1009.8
20260503230106 53 272 22.0 28.0 0.00 0.00 0.00 86 1009.7
20260503225610 53 269 18.0 30.0 0.00 0.00 0.00 87 1010.0
20260503225113 52 266 19.0 30.0 0.00 0.00 0.00 88 1009.7
20260503224616 52 264 17.0 29.0 0.00 0.00 0.00 88 1009.8
20260503224211 52 274 21.0 31.0 0.00 0.00 0.00 89 1009.7
20260503224119 52 274 21.0 31.0 0.00 0.00 0.00 89 1009.7
20260503223623 52 263 19.0 31.0 0.00 0.00 0.00 89 1010.6
20260503223125 52 257 17.0 33.0 0.00 0.00 0.00 89 1010.6
20260503222628 52 268 19.0 33.0 0.00 0.00 0.00 89 1010.4
20260503222131 53 265 21.0 32.0 0.00 0.00 0.00 88 1010.3
20260503221858 53 270 22.0 32.0 0.00 0.00 0.00 87 1010.5
20260503221634 53 270 22.0 32.0 0.00 0.00 0.00 87 1010.5
20260503221218 54 262 21.0 29.0 0.00 0.00 0.00 88 1010.5
20260503221137 54 262 21.0 29.0 0.00 0.00 0.00 88 1010.5
20260503220640 54 270 18.0 29.0 0.00 0.00 0.00 88 1010.3
20260503220318 54 264 23.0 30.0 0.00 0.00 0.00 87 1010.5
20260503220143 54 264 23.0 30.0 0.00 0.00 0.00 87 1010.5
20260503215731 54 269 23.0 30.0 0.00 0.00 0.00 86 1010.5
20260503215646 54 269 23.0 30.0 0.00 0.00 0.00 86 1010.5
20260503215235 54 265 20.0 30.0 0.00 0.00 0.00 86 1010.4
20260503215149 54 265 20.0 30.0 0.00 0.00 0.00 86 1010.4
20260503214831 55 277 21.0 30.0 0.00 0.00 0.00 86 1010.3
20260503214652 55 277 21.0 30.0 0.00 0.00 0.00 86 1010.3
20260503214231 55 269 20.0 29.0 0.00 0.00 0.00 87 1010.4
20260503214155 55 269 20.0 29.0 0.00 0.00 0.00 87 1010.4
20260503213917 54 275 20.0 30.0 0.00 0.00 0.00 85 1010.5
20260503213658 54 275 20.0 30.0 0.00 0.00 0.00 85 1010.5
20260503213301 54 270 22.0 30.0 0.00 0.00 0.00 86 1010.6
20260503213200 54 270 22.0 30.0 0.00 0.00 0.00 86 1010.6
20260503212703 55 272 17.0 27.0 0.00 0.00 0.00 87 1010.6
20260503211710 54 281 16.0 28.0 0.00 0.00 0.00 87 1010.7
20260503210715 54 268 15.0 23.0 0.00 0.00 0.00 87 1010.7
20260503210219 54 278 14.0 23.0 0.00 0.00 0.00 89 1010.9
20260503205722 54 261 16.0 24.0 0.00 0.00 0.00 89 1010.8
20260503205306 54 264 14.0 26.0 0.00 0.00 0.00 89 1011.0
20260503205224 54 264 14.0 26.0 0.00 0.00 0.00 89 1011.0
20260503203734 53 269 13.0 23.0 0.00 0.00 0.00 93 1010.8
20260503203400 52 289 15.0 23.0 0.00 0.00 0.00 93 1010.7
20260503203237 52 289 15.0 23.0 0.00 0.00 0.00 93 1010.7
20260503202740 52 289 15.0 21.0 0.00 0.00 0.00 93 1010.8
20260503202243 52 277 12.0 23.0 0.00 0.00 0.00 94 1011.2
20260503201746 52 286 14.0 23.0 0.00 0.00 0.00 94 1011.2
20260503201249 52 301 16.0 21.0 0.00 0.00 0.00 94 1011.0
20260503200752 52 297 13.0 22.0 0.00 0.00 0.00 93 1011.1
20260503200336 52 296 16.0 22.0 0.00 0.00 0.00 92 1011.9
20260503200255 52 296 16.0 22.0 0.00 0.00 0.00 92 1011.9
20260503195830 53 292 13.0 21.0 0.00 0.00 0.00 90 1011.8
20260503195758 53 292 13.0 21.0 0.00 0.00 0.00 90 1011.8
20260503194923 55 295 12.0 19.0 0.00 0.00 0.00 85 1011.9
20260503194804 55 295 12.0 19.0 0.00 0.00 0.00 85 1011.9
20260503193313 59 296 11.0 18.0 0.00 0.00 0.00 81 1011.8
20260503192934 59 311 11.0 18.0 0.00 0.00 0.00 81 1011.9
20260503192816 59 311 11.0 18.0 0.00 0.00 0.00 81 1011.9
20260503191822 61 321 11.0 20.0 0.00 0.00 0.00 75 1011.9
20260503191325 62 304 10.0 20.0 0.00 0.00 0.00 75 1012.0
20260503190418 63 279 11.0 20.0 0.00 0.00 0.00 71 1012.0
20260503190331 63 279 11.0 20.0 0.00 0.00 0.00 71 1012.0
20260503183349 67 243 11.0 21.0 0.00 0.00 0.00 45 1012.3
20260503182355 65 262 6.0 15.0 0.00 0.00 0.00 55 1012.1
20260503181858 64 262 7.0 14.0 0.00 0.00 0.00 61 1012.3
20260503180904 63 313 6.0 14.0 0.00 0.00 0.00 61 1012.4
20260503180407 64 273 8.0 15.0 0.00 0.00 0.00 65 1012.4
20260503175943 63 273 8.0 15.0 0.00 0.00 0.00 65 1012.3
20260503175910 63 273 8.0 15.0 0.00 0.00 0.00 65 1012.3
20260503175413 63 231 9.0 18.0 0.00 0.00 0.00 65 1012.3
20260503174916 63 263 8.0 18.0 0.00 0.00 0.00 68 1012.2
20260503174419 63 278 12.0 18.0 0.00 0.00 0.00 68 1012.2
20260503173922 63 284 9.0 14.0 0.00 0.00 0.00 69 1012.2
20260503172928 62 259 7.0 15.0 0.00 0.00 0.00 72 1012.1
20260503171934 63 287 12.0 17.0 0.00 0.00 0.00 69 1012.1
20260503130707 53 273 8.0 11.0 0.00 0.00 0.00 65 1010.2
20260503130210 54 266 6.0 9.0 0.00 0.00 0.00 63 1010.0
20260503110819 58 286 11.0 17.0 0.00 0.00 0.00 43 1010.6
20260503090434 61 269 9.0 11.0 0.00 0.00 0.00 30 1011.7
20260503081504 62 272 9.0 13.0 0.00 0.00 0.00 29 1012.2
20260503071043 62 258 9.0 13.0 0.00 0.00 0.00 30 1012.8
20260503070618 62 259 8.0 14.0 0.00 0.00 0.00 29 1012.8
20260503070546 62 259 8.0 14.0 0.00 0.00 0.00 29 1012.8
20260503060125 62 264 9.0 12.0 0.00 0.00 0.00 29 1013.1
20260503054634 63 272 9.0 14.0 0.00 0.00 0.00 29 1013.2
20260503051156 62 280 9.0 12.0 0.00 0.00 0.00 30 1013.0
20260503050658 62 280 9.0 12.0 0.00 0.00 0.00 31 1013.1
20260503050201 62 275 8.0 11.0 0.00 0.00 0.00 30 1013.1
20260503045207 61 277 8.0 10.0 0.00 0.00 0.00 31 1013.1
20260503044710 61 276 8.0 10.0 0.00 0.00 0.00 31 1013.0
20260503043219 61 277 7.0 11.0 0.00 0.00 0.00 32 1012.8
20260503042722 61 278 8.0 11.0 0.00 0.00 0.00 34 1012.7
20260503042226 61 274 7.0 10.0 0.00 0.00 0.00 34 1012.6
20260503041232 61 277 8.0 10.0 0.00 0.00 0.00 35 1012.6
20260503040734 61 275 8.0 10.0 0.00 0.00 0.00 36 1012.6
20260503040237 61 271 7.0 10.0 0.00 0.00 0.00 36 1012.5
20260503035740 60 275 7.0 10.0 0.00 0.00 0.00 35 1012.6
20260503033753 60 270 7.0 9.0 0.00 0.00 0.00 37 1012.2
20260503032304 61 269 6.0 8.0 0.00 0.00 0.00 41 1012.8
20260503031308 61 267 6.0 9.0 0.00 0.00 0.00 46 1012.8
20260503030811 61 265 7.0 9.0 0.00 0.00 0.00 46 1012.8
20260503030314 62 269 7.0 11.0 0.00 0.00 0.00 50 1012.6
20260503025817 62 271 7.0 11.0 0.00 0.00 0.00 53 1012.7
20260503025320 62 269 8.0 11.0 0.00 0.00 0.00 54 1012.7
20260503023829 62 263 9.0 12.0 0.00 0.00 0.00 57 1012.5
20260503023332 63 261 9.0 13.0 0.00 0.00 0.00 58 1012.5
20260503022834 63 265 10.0 13.0 0.00 0.00 0.00 61 1012.5
20260503021344 63 258 10.0 14.0 0.00 0.00 0.00 64 1012.3
20260503020350 64 256 9.0 14.0 0.00 0.00 0.00 68 1012.3
20260503015853 64 252 10.0 13.0 0.00 0.00 0.00 67 1012.3
20260503014858 65 260 9.0 15.0 0.00 0.00 0.00 63 1012.3
20260503011917 66 253 11.0 16.0 0.00 0.00 0.00 57 1012.2
20260503011420 67 256 10.0 16.0 0.00 0.00 0.00 56 1012.2
20260503010426 68 256 10.0 14.0 0.00 0.00 0.00 60 1012.2